Location: Newark
(58.9348°N, 25.9686°E)
Time: 11:26:22
(UTC+00:00)

N. Korean satellite - Visible Passes

Search period start: 22 November 2019 00:00
Search period end: 02 December 2019 00:00
Orbit: 456 x 506 km, 97.2° (Epoch: 21 November)

Date Brightness Start Highest point End Pass type
(mag) Time Alt. Az. Time Alt. Az. Time Alt. Az.
22 Nov 9.6 03:15:50 10° NE 03:18:30 18° E 03:21:06 10° SE visible
22 Nov 6.6 04:48:35 10° N 04:52:19 67° WNW 04:55:58 10° SSW visible
22 Nov 8.0 15:32:39 10° S 15:36:12 43° W 15:39:47 10° NNW visible
23 Nov 10.2 02:51:35 10° ENE 02:52:47 11° E 02:53:57 10° ESE visible
23 Nov 6.9 04:23:10 10° NNE 04:26:54 71° ESE 04:30:34 10° S visible
23 Nov 6.9 15:07:01 10° S 15:10:43 75° WSW 15:14:29 10° NNW visible
23 Nov 10.2 16:43:23 10° WSW 16:44:49 12° W 16:46:16 10° WNW visible
24 Nov 8.0 03:57:51 10° NNE 04:01:25 41° E 04:04:54 10° S visible
24 Nov 7.5 05:31:27 10° N 05:34:43 29° WNW 05:37:56 10° WSW visible
24 Nov 6.6 14:41:39 10° SSE 14:45:20 65° ENE 14:49:03 10° N visible
24 Nov 9.6 16:16:23 10° SW 16:19:07 19° W 16:21:51 10° NW visible
25 Nov 9.0 03:32:43 10° NE 03:35:51 25° E 03:38:55 10° SSE visible
25 Nov 6.9 05:05:52 10° N 05:09:27 47° WNW 05:12:58 10° SW visible
25 Nov 8.7 15:50:10 10° SSW 15:53:29 30° W 15:56:51 10° NNW visible
26 Nov 9.8 03:07:53 10° NE 03:10:11 16° E 03:12:27 10° SE visible
26 Nov 6.5 04:40:22 10° NNE 04:44:05 80° WNW 04:47:45 10° SSW visible
26 Nov 7.6 15:24:19 10° S 15:27:56 51° W 15:31:37 10° NNW visible
27 Nov 7.2 04:14:57 10° NNE 04:18:38 60° E 04:22:15 10° S visible
27 Nov 6.7 14:58:46 10° SSE 15:02:29 88° WSW 15:06:15 10° NNW visible
27 Nov 10.0 16:34:28 10° WSW 16:36:28 14° W 16:38:29 10° NW visible
28 Nov 8.3 03:49:42 10° NNE 03:53:07 35° E 03:56:29 10° SSE visible
28 Nov 7.3 05:23:09 10° N 05:26:31 33° WNW 05:29:50 10° SW visible
28 Nov 6.7 14:33:27 10° SSE 14:37:06 55° ENE 14:40:46 10° N visible
28 Nov 9.3 16:07:49 10° SW 16:10:47 22° W 16:13:46 10° NW visible
29 Nov 9.3 03:24:37 10° NE 03:27:30 21° E 03:30:20 10° SE visible
29 Nov 6.7 04:57:34 10° N 05:01:13 55° WNW 05:04:46 10° SSW visible
29 Nov 8.4 15:41:43 10° SSW 15:45:11 36° W 15:48:40 10° NNW visible
30 Nov 10.0 02:59:58 10° NE 03:01:48 13° E 03:03:36 10° ESE visible
30 Nov 6.6 04:32:07 10° NNE 04:35:49 87° ESE 04:39:26 10° SSW visible
30 Nov 7.2 15:15:58 10° S 15:19:39 61° WSW 15:23:22 10° NNW visible
01 Dec 7.5 04:06:44 10° NNE 04:10:19 50° E 04:13:51 10° S visible
01 Dec 7.7 05:40:29 10° N 05:43:32 25° WNW 05:46:32 10° WSW visible
01 Dec 6.6 14:50:29 10° SSE 14:54:13 79° ENE 14:57:57 10° NNW visible
01 Dec 9.8 16:25:43 10° SW 16:28:05 16° W 16:30:29 10° NW visible
